Regional Weather Roundup
Issued by NWS

Home | Current Version | Previous Version | Graphics & Text | Print | Product List | Glossary On
Versions: 1 2 3 4 5 6 7 8 9 10 11 12 13 14 15 16 17 18 19 20 21 22 23 24 25 26 27 28 29 30 31 32 33 34 35 36 37 38 39 40 41 42 43 44 45 46 47 48 49 50
000
ASUS43 KIND 280059
RWRIN

WEATHER ROUNDUP FOR INDIANA
NATIONAL WEATHER SERVICE INDIANAPOLIS IN
900 PM EDT SUN JUL 27 2014

NOTE: "FAIR" INDICATES FEW OR NO CLOUDS BELOW 12,000 FEET WITH NO
SIGNIFICANT WEATHER AND/OR OBSTRUCTIONS TO VISIBILITY.

* - STATION DOES NOT REPORT WEATHER SUCH AS PRECIPITATION OR FOG.

+ - STATION NOT QUALITY CONTROLLED BY THE NATIONAL WEATHER SERVICE.
    USE DATA WITH CAUTION...ESPECIALLY DEWPOINT AND RELATIVE
    HUMIDITY OBSERVATIONS.

INZ001>003-010>013-019-020-280200-
NORTHWEST INDIANA

CITY           SKY/WX    TMP DP  RH WIND       PRES   REMARKS
GARY /AIRPORT/ MOCLDY    75  54  46 W17G29    29.81R
KNOX *+        MOCLDY    70  57  64 NW7       29.78R
MONTICELLO +   MOCLDY    73  58  61 W13G20    29.79R
VALPARAISO     MOCLDY    72  57  59 NW10G17   29.80R

$$

LMZ046-743>745-280200-
SOUTHERN LAKE MICHIGAN

STATION/POSITION TIME  TEMP WIND        PRES
                       AIR  DIR/SP/G
                 (UTC) (F)  (DEG/KT/KT) (MB)
BURNS HARBOR     0000   72  330/ 14/ 22 1009.1R
MICHIGAN CITY    0000   70  300/ 12/ 15   N/A

$$

INZ004-005-014>016-021>024-280200-
NORTH CENTRAL INDIANA

CITY           SKY/WX    TMP DP  RH WIND       PRES   REMARKS
GOSHEN         PTCLDY    71  57  61 NW18      29.77R
SOUTH BEND     MOCLDY    70  57  63 NW15G21   29.79R
WARSAW +       PTCLDY    70  55  60 NW13G21   29.77R

$$

INZ006>009-017-018-025>027-280200-
NORTHEAST INDIANA

CITY           SKY/WX    TMP DP  RH WIND       PRES   REMARKS
ANGOLA *+      CLEAR     70  63  78 NW8       29.73R
AUBURN +       PTCLDY    72  59  64 NW10      29.74R
FORT WAYNE     MOCLDY    70  62  76 NW9       29.75R

$$

INZ028-029-035-036-043>045-051>053-280200-
WEST CENTRAL INDIANA

CITY           SKY/WX    TMP DP  RH WIND       PRES   REMARKS
GREENCASTLE +  MOCLDY    75  59  57 NW15G21   29.84R
LAFAYETTE      PTCLDY    72  58  61 NW9       29.81R
TERRE HAUTE    CLEAR     77  59  53 NW15G30   29.85R

$$

INZ030>032-037>040-046>048-054>057-064-065-280200-
CENTRAL INDIANA

CITY           SKY/WX    TMP DP  RH WIND       PRES   REMARKS
COLUMBUS       PTCLDY    75  63  64 W12G17    29.80R
INDIANAPOLIS   MOCLDY    75  58  55 NW14G26   29.80R
-EAGLE CREEK   MOCLDY    76  58  53 NW18G26   29.81R
KOKOMO *+      PTCLDY    73  57  56 NW16G24   29.78R
MT COMFORT *+  CLEAR     75  63  64 NW13G25   29.80R
SHELBYVILLE    PTCLDY    78  59  51 NW16G28   29.78R
ZIONSVILLE +   CLEAR     74  57  54 NW14G21   29.81R

$$

INZ033-034-041-042-049-050-058-059-280200-
EAST CENTRAL INDIANA

CITY           SKY/WX    TMP DP  RH WIND       PRES   REMARKS
MUNCIE         PTCLDY    73  59  61 W9        29.77R

$$

INZ060-061-067>069-081>083-085>088-280200-
SOUTHWEST INDIANA

CITY           SKY/WX    TMP DP  RH WIND       PRES   REMARKS
EVANSVILLE     PTCLDY    84  65  52 NW8       29.85R

$$

INZ062-063-066-070>080-084-089>092-280200-
SOUTH CENTRAL AND SOUTHEAST INDIANA

CITY           SKY/WX    TMP DP  RH WIND       PRES   REMARKS
BLOOMINGTON    CLEAR     75  59  57 NW9       29.83R

$$




USA.gov is the U.S. government's official web portal to all federal, state and local government web resources and services.